datetime,snow depth
2006-10-19,0.0
2006-10-20,0.0
2006-10-21,0.0
2006-10-22,0.0
2006-10-23,0.0
2006-10-24,0.0
2006-10-25,0.0
2006-10-26,0.0
2006-10-27,0.0
2006-10-28,0.0
2006-10-29,0.0
2006-10-30,0.0
2006-10-31,0.0
2006-11-01,0.0
2006-11-02,0.0
2006-11-03,0.0
2006-11-04,0.0
2006-11-05,0.0
2006-11-06,0.0
2006-11-07,0.0
2006-11-08,0.0
2006-11-09,2.0
2006-11-10,1.0
2006-11-11,2.0
2006-11-12,3.0
2006-11-13,12.0
2006-11-14,16.0
2006-11-15,15.0
2006-11-16,13.0
2006-11-17,12.0
2006-11-18,11.0
2006-11-19,10.0
2006-11-20,10.0
2006-11-21,8.0
2006-11-22,8.0
2006-11-23,11.0
2006-11-24,10.0
2006-11-25,10.0
2006-11-26,11.0
2006-11-27,21.0
2006-11-28,24.0
2006-11-29,23.0
2006-11-30,22.0
2006-12-01,22.0
2006-12-02,20.0
2006-12-03,20.0
2006-12-04,20.0
2006-12-05,20.0
2006-12-06,20.0
2006-12-07,19.0
2006-12-08,19.0
2006-12-09,18.0
2006-12-10,20.0
2006-12-11,22.0
2006-12-12,26.0
2006-12-13,28.0
2006-12-14,30.0
2006-12-15,25.0
2006-12-16,26.0
2006-12-17,26.0
2006-12-18,26.0
2006-12-19,26.0
2006-12-20,25.0
2006-12-21,25.0
2006-12-22,27.0
2006-12-23,27.0
2006-12-24,28.0
2006-12-25,28.0
2006-12-26,31.0
2006-12-27,37.0
2006-12-28,39.0
2006-12-29,38.0
2006-12-30,38.0
2006-12-31,37.0
2007-01-01,37.0
2007-01-02,37.0
2007-01-03,36.0
2007-01-04,45.0
2007-01-05,46.0
2007-01-06,45.0
2007-01-07,44.0
2007-01-08,43.0
2007-01-09,43.0
2007-01-10,43.0
2007-01-11,43.0
2007-01-12,47.0
2007-01-13,45.0
2007-01-14,44.0
2007-01-15,44.0
2007-01-16,43.0
2007-01-17,44.0
2007-01-18,44.0
2007-01-19,43.0
2007-01-20,43.0
2007-01-21,43.0
2007-01-22,43.0
2007-01-23,42.0
2007-01-24,42.0
2007-01-25,41.0
2007-01-26,41.0
2007-01-27,41.0
2007-01-28,41.0
2007-01-29,41.0
2007-01-30,41.0
2007-01-31,41.0
2007-02-01,41.0
2007-02-02,41.0
2007-02-03,40.0
2007-02-04,40.0
2007-02-05,39.0
2007-02-06,39.0
2007-02-07,38.0
2007-02-08,43.0
2007-02-09,46.0
2007-02-10,45.0
2007-02-11,48.0
2007-02-12,52.0
2007-02-13,51.0
2007-02-14,51.0
2007-02-15,51.0
2007-02-16,50.0
2007-02-17,48.0
2007-02-18,48.0
2007-02-19,48.0
2007-02-20,47.0
2007-02-21,51.0
2007-02-22,64.0
2007-02-23,68.0
2007-02-24,68.0
2007-02-25,70.0
2007-02-26,73.0
2007-02-27,76.0
2007-02-28,76.0
2007-03-01,76.0
2007-03-02,77.0
2007-03-03,79.0
2007-03-04,75.0
2007-03-05,72.0
2007-03-06,71.0
2007-03-07,69.0
2007-03-08,70.0
2007-03-09,69.0
2007-03-10,71.0
2007-03-11,69.0
2007-03-12,66.0
2007-03-13,63.0
2007-03-14,61.0
2007-03-15,60.0
2007-03-16,59.0
2007-03-17,57.0
2007-03-18,55.0
2007-03-19,54.0
2007-03-20,54.0
2007-03-21,53.0
2007-03-22,53.0
2007-03-23,52.0
2007-03-24,50.0
2007-03-25,49.0
2007-03-26,48.0
2007-03-27,51.0
2007-03-28,51.0
2007-03-29,50.0
2007-03-30,49.0
2007-03-31,48.0
2007-04-01,46.0
2007-04-02,46.0
2007-04-03,46.0
2007-04-04,44.0
2007-04-05,43.0
2007-04-06,41.0
2007-04-07,39.0
2007-04-08,38.0
2007-04-09,37.0
2007-04-10,37.0
2007-04-11,37.0
2007-04-12,39.0
2007-04-13,38.0
2007-04-14,37.0
2007-04-15,40.0
2007-04-16,38.0
2007-04-17,36.0
2007-04-18,36.0
2007-04-19,36.0
2007-04-20,38.0
2007-04-21,35.0
2007-04-22,43.0
2007-04-23,41.0
2007-04-24,38.0
2007-04-25,36.0
2007-04-26,35.0
2007-04-27,33.0
2007-04-28,29.0
2007-04-29,26.0
2007-04-30,23.0
2007-05-01,21.0
2007-05-02,20.0
2007-05-03,20.0
2007-05-04,18.0
2007-05-05,22.0
2007-05-06,18.0
2007-05-07,17.0
2007-05-08,13.0
2007-05-09,9.0
2007-05-10,7.0
2007-05-11,3.0
2007-05-12,1.0
2007-05-13,1.0
2007-05-14,0.0
2007-05-15,0.0
2007-05-16,0.0
2007-05-17,0.0
2007-05-18,0.0
2007-05-19,0.0
2007-05-20,0.0
2007-05-21,0.0
2007-05-22,0.0
2007-05-23,0.0
2007-05-24,0.0
2007-05-25,0.0
2007-05-26,0.0
2007-05-27,0.0
2007-05-28,0.0
2007-05-29,0.0
2007-05-30,0.0
2007-05-31,0.0
2007-06-01,0.0
2007-06-02,0.0
2007-06-03,0.0
2007-06-04,0.0
2007-06-05,0.0
2007-06-06,0.0
2007-06-07,0.0
2007-06-08,0.0
2007-06-09,0.0
2007-06-10,0.0
2007-06-11,0.0
2007-06-12,0.0
2007-06-13,0.0
2007-06-14,0.0
2007-06-15,0.0
2007-06-16,0.0
2007-06-17,0.0
2007-06-18,0.0
2007-06-19,0.0
2007-06-20,0.0
2007-06-21,0.0
2007-06-22,0.0
2007-06-23,0.0
2007-06-24,0.0
2007-06-25,0.0
2007-06-26,0.0
2007-06-27,0.0
2007-06-28,0.0
2007-06-29,0.0
2007-06-30,0.0
2007-07-01,0.0
2007-07-02,0.0
2007-07-03,0.0
2007-07-04,0.0
2007-07-05,0.0
2007-07-06,0.0
2007-07-07,0.0
2007-07-08,0.0
2007-07-09,0.0
2007-07-10,0.0
2007-07-11,0.0
2007-07-12,0.0
2007-07-13,0.0
2007-07-14,0.0
2007-07-15,0.0
2007-07-16,0.0
2007-07-17,0.0
2007-07-18,0.0
2007-07-19,0.0
2007-07-20,0.0
2007-07-21,0.0
2007-07-22,0.0
2007-07-23,0.0
2007-07-24,0.0
2007-07-25,0.0
2007-07-26,0.0
2007-07-27,0.0
2007-07-28,0.0
2007-07-29,0.0
2007-07-30,0.0
2007-07-31,0.0
2007-08-01,0.0
2007-08-02,0.0
2007-08-03,0.0
2007-08-04,0.0
2007-08-05,0.0
2007-08-06,0.0
2007-08-07,0.0
2007-08-08,0.0
2007-08-09,0.0
2007-08-10,0.0
2007-08-11,0.0
2007-08-12,0.0
2007-08-13,0.0
2007-08-14,0.0
2007-08-15,0.0
2007-08-16,0.0
2007-08-17,0.0
2007-08-18,0.0
2007-08-19,0.0
2007-08-20,0.0
2007-08-21,0.0
2007-08-22,0.0
2007-08-23,0.0
2007-08-24,0.0
2007-08-25,0.0
2007-08-26,0.0
2007-08-27,0.0
2007-08-28,0.0
2007-08-29,0.0
2007-08-30,0.0
2007-08-31,0.0
2007-09-01,0.0
2007-09-02,0.0
2007-09-03,0.0
2007-09-04,0.0
2007-09-05,0.0
2007-09-06,0.0
2007-09-07,0.0
2007-09-08,0.0
2007-09-09,0.0
2007-09-10,0.0
2007-09-11,0.0
2007-09-12,0.0
2007-09-13,0.0
2007-09-14,0.0
2007-09-15,0.0
2007-09-16,0.0
2007-09-17,0.0
2007-09-18,0.0
2007-09-19,0.0
2007-09-20,0.0
2007-09-21,0.0
2007-09-22,0.0
2007-09-23,0.0
2007-09-24,0.0
2007-09-25,0.0
2007-09-26,0.0
2007-09-27,0.0
2007-09-28,0.0
2007-09-29,0.0
2007-09-30,0.0
2007-10-01,0.0
2007-10-02,0.0
2007-10-03,0.0
2007-10-04,0.0
2007-10-05,0.0
2007-10-06,0.0
2007-10-07,0.0
2007-10-08,0.0
2007-10-09,0.0
2007-10-10,0.0
2007-10-11,0.0
2007-10-12,0.0
2007-10-13,0.0
2007-10-14,0.0
2007-10-15,0.0
2007-10-16,0.0
2007-10-17,0.0
2007-10-18,3.0
2007-10-19,2.0
2007-10-20,1.0
2007-10-21,3.0
2007-10-22,2.0
2007-10-23,0.0
2007-10-24,0.0
2007-10-25,0.0
2007-10-26,0.0
2007-10-27,0.0
2007-10-28,0.0
2007-10-29,0.0
2007-10-30,0.0
2007-10-31,0.0
2007-11-01,0.0
2007-11-02,0.0
2007-11-03,0.0
2007-11-04,0.0
2007-11-05,0.0
2007-11-06,0.0
2007-11-07,0.0
2007-11-08,0.0
2007-11-09,0.0
2007-11-10,0.0
2007-11-11,0.0
2007-11-12,0.0
2007-11-13,0.0
2007-11-14,0.0
2007-11-15,0.0
2007-11-16,0.0
2007-11-17,0.0
2007-11-18,0.0
2007-11-19,0.0
2007-11-20,3.0
2007-11-21,2.0
2007-11-22,2.0
2007-11-23,3.0
2007-11-24,2.0
2007-11-25,3.0
2007-11-26,2.0
2007-11-27,3.0
2007-11-28,3.0
2007-11-29,2.0
2007-11-30,3.0
2007-12-01,3.0
2007-12-02,3.0
2007-12-03,3.0
2007-12-04,2.0
2007-12-05,1.0
2007-12-06,1.0
2007-12-07,8.0
2007-12-08,7.0
2007-12-09,7.0
2007-12-10,6.0
2007-12-11,5.0
2007-12-12,5.0
2007-12-13,6.0
2007-12-14,5.0
2007-12-15,5.0
2007-12-16,6.0
2007-12-17,4.0
2007-12-18,8.0
2007-12-19,9.0
2007-12-20,17.0
2007-12-21,17.0
2007-12-22,20.0
2007-12-23,19.0
2007-12-24,17.0
2007-12-25,18.0
2007-12-26,19.0
2007-12-27,22.0
2007-12-28,25.0
2007-12-29,26.0
2007-12-30,25.0
2007-12-31,22.0
2008-01-01,20.0
2008-01-02,23.0
2008-01-03,23.0
2008-01-04,24.0
2008-01-05,31.0
2008-01-06,32.0
2008-01-07,35.0
2008-01-08,42.0
2008-01-09,43.0
2008-01-10,44.0
2008-01-11,46.0
2008-01-12,46.0
2008-01-13,46.0
2008-01-14,47.0
2008-01-15,46.0
2008-01-16,44.0
2008-01-17,44.0
2008-01-18,44.0
2008-01-19,43.0
2008-01-20,42.0
2008-01-21,45.0
2008-01-22,48.0
2008-01-23,46.0
2008-01-24,44.0
2008-01-25,46.0
2008-01-26,45.0
2008-01-27,44.0
2008-01-28,46.0
2008-01-29,53.0
2008-01-30,58.0
2008-01-31,61.0
2008-02-01,69.0
2008-02-02,70.0
2008-02-03,71.0
2008-02-04,72.0
2008-02-05,73.0
2008-02-06,73.0
2008-02-07,71.0
2008-02-08,70.0
2008-02-09,69.0
2008-02-10,67.0
2008-02-11,66.0
2008-02-12,65.0
2008-02-13,63.0
2008-02-14,62.0
2008-02-15,62.0
2008-02-16,61.0
2008-02-17,60.0
2008-02-18,60.0
2008-02-19,59.0
2008-02-20,58.0
2008-02-21,58.0
2008-02-22,61.0
2008-02-23,61.0
2008-02-24,62.0
2008-02-25,63.0
2008-02-26,64.0
2008-02-27,63.0
2008-02-28,62.0
2008-02-29,60.0
2008-03-01,60.0
2008-03-02,60.0
2008-03-03,61.0
2008-03-04,60.0
2008-03-05,59.0
2008-03-06,59.0
2008-03-07,59.0
2008-03-08,60.0
2008-03-09,59.0
2008-03-10,58.0
2008-03-11,57.0
2008-03-12,56.0
2008-03-13,59.0
2008-03-14,59.0
2008-03-15,60.0
2008-03-16,59.0
2008-03-17,59.0
2008-03-18,59.0
2008-03-19,59.0
2008-03-20,62.0
2008-03-21,62.0
2008-03-22,61.0
2008-03-23,60.0
2008-03-24,59.0
2008-03-25,59.0
2008-03-26,60.0
2008-03-27,63.0
2008-03-28,61.0
2008-03-29,64.0
2008-03-30,64.0
2008-03-31,63.0
2008-04-01,63.0
2008-04-02,63.0
2008-04-03,61.0
2008-04-04,60.0
2008-04-05,59.0
2008-04-06,60.0
2008-04-07,60.0
2008-04-08,59.0
2008-04-09,60.0
2008-04-10,59.0
2008-04-11,59.0
2008-04-12,57.0
2008-04-13,54.0
2008-04-14,52.0
2008-04-15,52.0
2008-04-16,52.0
2008-04-17,51.0
2008-04-18,48.0
2008-04-19,47.0
2008-04-20,47.0
2008-04-21,50.0
2008-04-22,48.0
2008-04-23,52.0
2008-04-24,52.0
2008-04-25,49.0
2008-04-26,48.0
2008-04-27,45.0
2008-04-28,42.0
2008-04-29,40.0
2008-04-30,42.0
2008-05-01,42.0
2008-05-02,40.0
2008-05-03,38.0
2008-05-04,37.0
2008-05-05,34.0
2008-05-06,32.0
2008-05-07,30.0
2008-05-08,28.0
2008-05-09,27.0
2008-05-10,25.0
2008-05-11,23.0
2008-05-12,21.0
2008-05-13,19.0
2008-05-14,17.0
2008-05-15,14.0
2008-05-16,9.0
2008-05-17,4.0
2008-05-18,0.0
2008-05-19,0.0
2008-05-20,0.0
2008-05-21,0.0
2008-05-22,0.0
2008-05-23,0.0
2008-05-24,0.0
2008-05-25,0.0
2008-05-26,0.0
2008-05-27,0.0
2008-05-28,0.0
2008-05-29,0.0
2008-05-30,0.0
2008-05-31,0.0
2008-06-01,0.0
2008-06-02,0.0
2008-06-03,0.0
2008-06-04,0.0
2008-06-05,0.0
2008-06-06,0.0
2008-06-07,0.0
2008-06-08,0.0
2008-06-09,0.0
2008-06-10,0.0
2008-06-11,0.0
2008-06-12,0.0
2008-06-13,0.0
2008-06-14,0.0
2008-06-15,0.0
2008-06-16,0.0
2008-06-17,0.0
2008-06-18,0.0
2008-06-19,0.0
2008-06-20,0.0
2008-06-21,0.0
2008-06-22,0.0
2008-06-23,0.0
2008-06-24,0.0
2008-06-25,0.0
2008-06-26,0.0
2008-06-27,0.0
2008-06-28,0.0
2008-06-29,0.0
2008-06-30,0.0
2008-07-01,0.0
2008-07-02,0.0
2008-07-03,0.0
2008-07-04,0.0
2008-07-05,0.0
2008-07-06,0.0
2008-07-07,0.0
2008-07-08,0.0
2008-07-09,0.0
2008-07-10,0.0
2008-07-11,0.0
2008-07-12,0.0
2008-07-13,0.0
2008-07-14,0.0
2008-07-15,0.0
2008-07-16,0.0
2008-07-17,0.0
2008-07-18,0.0
2008-07-19,0.0
2008-07-20,0.0
2008-07-21,0.0
2008-07-22,0.0
2008-07-23,0.0
2008-07-24,0.0
2008-07-25,0.0
2008-07-26,0.0
2008-07-27,0.0
2008-07-28,0.0
2008-07-29,0.0
2008-07-30,0.0
2008-07-31,0.0
2008-08-01,0.0
2008-08-02,0.0
2008-08-03,0.0
2008-08-04,0.0
2008-08-05,0.0
2008-08-06,0.0
2008-08-07,0.0
2008-08-08,0.0
2008-08-09,0.0
2008-08-10,0.0
2008-08-11,0.0
2008-08-12,0.0
2008-08-13,0.0
2008-08-14,0.0
2008-08-15,0.0
2008-08-16,0.0
2008-08-17,0.0
2008-08-18,0.0
2008-08-19,0.0
2008-08-20,0.0
2008-08-21,0.0
2008-08-22,0.0
2008-08-23,0.0
2008-08-24,0.0
2008-08-25,0.0
2008-08-26,0.0
2008-08-27,0.0
2008-08-28,0.0
2008-08-29,0.0
2008-08-30,0.0
2008-08-31,0.0
2008-09-01,0.0
2008-09-02,0.0
2008-09-03,0.0
2008-09-04,0.0
2008-09-05,0.0
2008-09-06,0.0
2008-09-07,0.0
2008-09-08,0.0
2008-09-09,0.0
2008-09-10,0.0
2008-09-11,0.0
2008-09-12,0.0
2008-09-13,0.0
2008-09-14,0.0
2008-09-15,0.0
2008-09-16,0.0
2008-09-17,0.0
2008-09-18,0.0
2008-09-19,0.0
2008-09-20,0.0
2008-09-21,0.0
2008-09-22,0.0
2008-09-23,0.0
2008-09-24,0.0
2008-09-25,0.0
2008-09-26,0.0
2008-09-27,0.0
2008-09-28,0.0
2008-09-29,0.0
2008-09-30,0.0
2008-10-01,0.0
2008-10-02,0.0
2008-10-03,0.0
2008-10-04,0.0
2008-10-05,0.0
2008-10-06,0.0
2008-10-07,0.0
2008-10-08,0.0
2008-10-09,0.0
2008-10-10,0.0
2008-10-11,0.0
2008-10-12,0.0
2008-10-13,0.0
2008-10-14,0.0
2008-10-15,0.0
2008-10-16,0.0
2008-10-17,0.0
2008-10-18,0.0
2008-10-19,0.0
2008-10-20,0.0
2008-10-21,0.0
2008-10-22,0.0
2008-10-23,0.0
2008-10-24,0.0
2008-10-25,0.0
2008-10-26,0.0
2008-10-27,0.0
2008-10-28,0.0
2008-10-29,0.0
2008-10-30,0.0
2008-10-31,0.0
2008-11-01,0.0
2008-11-02,0.0
2008-11-03,0.0
2008-11-04,8.0
2008-11-05,12.0
2008-11-06,15.0
2008-11-07,10.0
2008-11-08,8.0
2008-11-09,7.0
2008-11-10,7.0
2008-11-11,6.0
2008-11-12,6.0
2008-11-13,4.0
2008-11-14,2.0
2008-11-15,2.0
2008-11-16,0.0
2008-11-17,0.0
2008-11-18,0.0
2008-11-19,0.0
2008-11-20,0.0
2008-11-21,1.0
2008-11-22,1.0
2008-11-23,1.0
2008-11-24,1.0
2008-11-25,1.0
2008-11-26,1.0
2008-11-27,0.0
2008-11-28,0.0
2008-11-29,0.0
2008-11-30,0.0
2008-12-01,0.0
2008-12-02,0.0
2008-12-03,0.0
2008-12-04,0.0
2008-12-05,0.0
2008-12-06,0.0
2008-12-07,0.0
2008-12-08,0.0
2008-12-09,0.0
2008-12-10,0.0
2008-12-11,0.0
2008-12-12,0.0
2008-12-13,2.0
2008-12-14,5.0
2008-12-15,12.0
2008-12-16,12.0
2008-12-17,11.0
2008-12-18,9.0
2008-12-19,17.0
2008-12-20,19.0
2008-12-21,19.0
2008-12-22,20.0
2008-12-23,20.0
2008-12-24,18.0
2008-12-25,25.0
2008-12-26,27.0
2008-12-27,27.0
2008-12-28,29.0
2008-12-29,35.0
2008-12-30,36.0
2008-12-31,36.0
2009-01-01,31.0
2009-01-02,31.0
2009-01-03,33.0
2009-01-04,33.0
2009-01-05,33.0
2009-01-06,34.0
2009-01-07,33.0
2009-01-08,33.0
2009-01-09,33.0
2009-01-10,33.0
2009-01-11,33.0
2009-01-12,32.0
2009-01-13,31.0
2009-01-14,31.0
2009-01-15,30.0
2009-01-16,30.0
2009-01-17,30.0
2009-01-18,30.0
2009-01-19,30.0
2009-01-20,30.0
2009-01-21,29.0
2009-01-22,30.0
2009-01-23,30.0
2009-01-24,30.0
2009-01-25,29.0
2009-01-26,32.0
2009-01-27,32.0
2009-01-28,32.0
2009-01-29,32.0
2009-01-30,32.0
2009-01-31,31.0
2009-02-01,31.0
2009-02-02,31.0
2009-02-03,30.0
2009-02-04,30.0
2009-02-05,29.0
2009-02-06,27.0
2009-02-07,32.0
2009-02-08,32.0
2009-02-09,34.0
2009-02-10,33.0
2009-02-11,36.0
2009-02-12,37.0
2009-02-13,37.0
2009-02-14,42.0
2009-02-15,45.0
2009-02-16,45.0
2009-02-17,44.0
2009-02-18,44.0
2009-02-19,43.0
2009-02-20,42.0
2009-02-21,41.0
2009-02-22,40.0
2009-02-23,46.0
2009-02-24,49.0
2009-02-25,48.0
2009-02-26,48.0
2009-02-27,47.0
2009-02-28,47.0
2009-03-01,46.0
2009-03-02,47.0
2009-03-03,58.0
2009-03-04,62.0
2009-03-05,62.0
2009-03-06,63.0
2009-03-07,63.0
2009-03-08,61.0
2009-03-09,61.0
2009-03-10,63.0
2009-03-11,61.0
2009-03-12,60.0
2009-03-13,58.0
2009-03-14,57.0
2009-03-15,57.0
2009-03-16,61.0
2009-03-17,62.0
2009-03-18,60.0
2009-03-19,58.0
2009-03-20,57.0
2009-03-21,55.0
2009-03-22,57.0
2009-03-23,58.0
2009-03-24,58.0
2009-03-25,57.0
2009-03-26,57.0
2009-03-27,55.0
2009-03-28,54.0
2009-03-29,53.0
2009-03-30,53.0
2009-03-31,52.0
2009-04-01,52.0
2009-04-02,51.0
2009-04-03,52.0
2009-04-04,53.0
2009-04-05,52.0
2009-04-06,51.0
2009-04-07,48.0
2009-04-08,48.0
2009-04-09,49.0
2009-04-10,54.0
2009-04-11,53.0
2009-04-12,51.0
2009-04-13,50.0
2009-04-14,49.0
2009-04-15,49.0
2009-04-16,49.0
2009-04-17,48.0
2009-04-18,47.0
2009-04-19,44.0
2009-04-20,42.0
2009-04-21,39.0
2009-04-22,36.0
2009-04-23,34.0
2009-04-24,33.0
2009-04-25,31.0
2009-04-26,30.0
2009-04-27,29.0
2009-04-28,27.0
2009-04-29,22.0
2009-04-30,26.0
2009-05-01,25.0
2009-05-02,25.0
2009-05-03,28.0
2009-05-04,29.0
2009-05-05,32.0
2009-05-06,28.0
2009-05-07,27.0
2009-05-08,26.0
2009-05-09,23.0
2009-05-10,20.0
2009-05-11,18.0
2009-05-12,15.0
2009-05-13,14.0
2009-05-14,12.0
2009-05-15,10.0
2009-05-16,7.0
2009-05-17,4.0
2009-05-18,0.0
2009-05-19,0.0
2009-05-20,0.0
2009-05-21,0.0
2009-05-22,0.0
2009-05-23,0.0
2009-05-24,0.0
2009-05-25,0.0
2009-05-26,0.0
2009-05-27,0.0
2009-05-28,0.0
2009-05-29,0.0
2009-05-30,0.0
2009-05-31,0.0
2009-06-01,0.0
2009-06-02,0.0
2009-06-03,0.0
2009-06-04,0.0
2009-06-05,0.0
2009-06-06,0.0
2009-06-07,0.0
2009-06-08,0.0
2009-06-09,0.0
2009-06-10,0.0
2009-06-11,0.0
2009-06-12,0.0
2009-06-13,0.0
2009-06-14,0.0
2009-06-15,0.0
2009-06-16,0.0
2009-06-17,0.0
2009-06-18,0.0
2009-06-19,0.0
2009-06-20,0.0
2009-06-21,0.0
2009-06-22,0.0
2009-06-23,0.0
2009-06-24,0.0
2009-06-25,0.0
2009-06-26,0.0
2009-06-27,0.0
2009-06-28,0.0
2009-06-29,0.0
2009-06-30,0.0
2009-07-01,0.0
2009-07-02,0.0
2009-07-03,0.0
2009-07-04,0.0
2009-07-05,0.0
2009-07-06,0.0
2009-07-07,0.0
2009-07-08,0.0
2009-07-09,0.0
2009-07-10,0.0
2009-07-11,0.0
2009-07-12,0.0
2009-07-13,0.0
2009-07-14,0.0
2009-07-15,0.0
2009-07-16,0.0
2009-07-17,0.0
2009-07-18,0.0
2009-07-19,0.0
2009-07-20,0.0
2009-07-21,0.0
2009-07-22,0.0
2009-07-23,0.0
2009-07-24,0.0
2009-07-25,0.0
2009-07-26,0.0
2009-07-27,0.0
2009-07-28,0.0
2009-07-29,0.0
2009-07-30,0.0
2009-07-31,0.0
2009-08-01,0.0
2009-08-02,0.0
2009-08-03,0.0
2009-08-04,0.0
2009-08-05,0.0
2009-08-06,0.0
2009-08-07,0.0
2009-08-08,0.0
2009-08-09,0.0
2009-08-10,0.0
2009-08-11,0.0
2009-08-12,0.0
2009-08-13,0.0
2009-08-14,0.0
2009-08-15,0.0
2009-08-16,0.0
2009-08-17,0.0
2009-08-18,0.0
2009-08-19,0.0
2009-08-20,0.0
2009-08-21,0.0
2009-08-22,0.0
2009-08-23,0.0
2009-08-24,0.0
2009-08-25,0.0
2009-08-26,0.0
2009-08-27,0.0
2009-08-28,0.0
2009-08-29,0.0
2009-08-30,0.0
2009-08-31,0.0
2009-09-01,0.0
2009-09-02,0.0
2009-09-03,0.0
2009-09-04,0.0
2009-09-05,0.0
2009-09-06,0.0
2009-09-07,0.0
2009-09-08,0.0
2009-09-09,0.0
2009-09-10,0.0
2009-09-11,0.0
2009-09-12,0.0
2009-09-13,0.0
2009-09-14,0.0
2009-09-15,0.0
2009-09-16,0.0
2009-09-17,0.0
2009-09-18,0.0
2009-09-19,0.0
2009-09-20,0.0
2009-09-21,0.0
2009-09-22,0.0
2009-09-23,0.0
2009-09-24,0.0
2009-09-25,0.0
2009-09-26,0.0
2009-09-27,0.0
2009-09-28,0.0
2009-09-29,0.0
2009-09-30,0.0
2009-10-01,0.0
2009-10-02,0.0
2009-10-03,0.0
2009-10-04,0.0
2009-10-05,0.0
2009-10-06,0.0
2009-10-07,0.0
2009-10-08,0.0
2009-10-09,0.0
2009-10-10,0.0
2009-10-11,0.0
2009-10-12,0.0
2009-10-13,0.0
2009-10-14,0.0
2009-10-15,0.0
2009-10-16,0.0
2009-10-17,0.0
2009-10-18,0.0
2009-10-19,0.0
2009-10-20,0.0
2009-10-21,0.0
2009-10-22,0.0
2009-10-23,0.0
2009-10-24,0.0
2009-10-25,0.0
2009-10-26,0.0
2009-10-27,0.0
2009-10-28,0.0
2009-10-29,0.0
2009-10-30,0.0
2009-10-31,0.0
2009-11-01,0.0
2009-11-02,0.0
2009-11-03,0.0
2009-11-04,0.0
2009-11-05,0.0
2009-11-06,0.0
2009-11-07,1.0
2009-11-08,1.0
2009-11-09,1.0
2009-11-10,3.0
2009-11-11,3.0
2009-11-12,4.0
2009-11-13,6.0
2009-11-14,6.0
2009-11-15,6.0
2009-11-16,5.0
2009-11-17,5.0
2009-11-18,9.0
2009-11-19,8.0
2009-11-20,8.0
2009-11-21,10.0
2009-11-22,11.0
2009-11-23,15.0
2009-11-24,13.0
2009-11-25,12.0
2009-11-26,12.0
2009-11-27,12.0
2009-11-28,15.0
2009-11-29,14.0
2009-11-30,14.0
2009-12-01,14.0
2009-12-02,13.0
2009-12-03,13.0
2009-12-04,13.0
2009-12-05,13.0
2009-12-06,13.0
2009-12-07,21.0
2009-12-08,17.0
2009-12-09,16.0
2009-12-10,16.0
2009-12-11,16.0
2009-12-12,17.0
2009-12-13,16.0
2009-12-14,17.0
2009-12-15,18.0
2009-12-16,18.0
2009-12-17,18.0
2009-12-18,18.0
2009-12-19,18.0
2009-12-20,17.0
2009-12-21,17.0
2009-12-22,18.0
2009-12-23,18.0
2009-12-24,19.0
2009-12-25,18.0
2009-12-26,18.0
2009-12-27,19.0
2009-12-28,19.0
2009-12-29,19.0
2009-12-30,23.0
2009-12-31,25.0
2010-01-01,26.0
2010-01-02,28.0
2010-01-03,29.0
2010-01-04,29.0
2010-01-05,28.0
2010-01-06,27.0
2010-01-07,25.0
2010-01-08,24.0
2010-01-09,23.0
2010-01-10,23.0
2010-01-11,23.0
2010-01-12,23.0
2010-01-13,28.0
2010-01-14,31.0
2010-01-15,31.0
2010-01-16,30.0
2010-01-17,30.0
2010-01-18,32.0
2010-01-19,32.0
2010-01-20,30.0
2010-01-21,35.0
2010-01-22,38.0
2010-01-23,38.0
2010-01-24,38.0
2010-01-25,40.0
2010-01-26,44.0
2010-01-27,46.0
2010-01-28,47.0
2010-01-29,46.0
2010-01-30,45.0
2010-01-31,48.0
2010-02-01,47.0
2010-02-02,49.0
2010-02-03,48.0
2010-02-04,47.0
2010-02-05,48.0
2010-02-06,48.0
2010-02-07,50.0
2010-02-08,50.0
2010-02-09,49.0
2010-02-10,49.0
2010-02-11,50.0
2010-02-12,52.0
2010-02-13,51.0
2010-02-14,50.0
2010-02-15,52.0
2010-02-16,50.0
2010-02-17,49.0
2010-02-18,48.0
2010-02-19,48.0
2010-02-20,47.0
2010-02-21,47.0
2010-02-22,47.0
2010-02-23,46.0
2010-02-24,50.0
2010-02-25,53.0
2010-02-26,53.0
2010-02-27,53.0
2010-02-28,53.0
2010-03-01,53.0
2010-03-02,52.0
2010-03-03,52.0
2010-03-04,57.0
2010-03-05,55.0
2010-03-06,55.0
2010-03-07,54.0
2010-03-08,53.0
2010-03-09,53.0
2010-03-10,56.0
2010-03-11,55.0
2010-03-12,54.0
2010-03-13,57.0
2010-03-14,56.0
2010-03-15,55.0
2010-03-16,53.0
2010-03-17,51.0
2010-03-18,50.0
2010-03-19,49.0
2010-03-20,48.0
2010-03-21,46.0
2010-03-22,46.0
2010-03-23,46.0
2010-03-24,45.0
2010-03-25,44.0
2010-03-26,45.0
2010-03-27,44.0
2010-03-28,43.0
2010-03-29,43.0
2010-03-30,46.0
2010-03-31,51.0
2010-04-01,50.0
2010-04-02,49.0
2010-04-03,56.0
2010-04-04,57.0
2010-04-05,58.0
2010-04-06,58.0
2010-04-07,57.0
2010-04-08,54.0
2010-04-09,53.0
2010-04-10,53.0
2010-04-11,52.0
2010-04-12,53.0
2010-04-13,54.0
2010-04-14,54.0
2010-04-15,53.0
2010-04-16,52.0
2010-04-17,50.0
2010-04-18,48.0
2010-04-19,47.0
2010-04-20,45.0
2010-04-21,48.0
2010-04-22,51.0
2010-04-23,46.0
2010-04-24,45.0
2010-04-25,44.0
2010-04-26,41.0
2010-04-27,41.0
2010-04-28,54.0
2010-04-29,53.0
2010-04-30,52.0
2010-05-01,50.0
2010-05-02,47.0
2010-05-03,45.0
2010-05-04,43.0
2010-05-05,42.0
2010-05-06,41.0
2010-05-07,41.0
2010-05-08,40.0
2010-05-09,39.0
2010-05-10,39.0
2010-05-11,46.0
2010-05-12,40.0
2010-05-13,39.0
2010-05-14,36.0
2010-05-15,33.0
2010-05-16,31.0
2010-05-17,28.0
2010-05-18,27.0
2010-05-19,24.0
2010-05-20,23.0
2010-05-21,22.0
2010-05-22,24.0
2010-05-23,23.0
2010-05-24,21.0
2010-05-25,21.0
2010-05-26,23.0
2010-05-27,21.0
2010-05-28,20.0
2010-05-29,18.0
2010-05-30,17.0
2010-05-31,15.0
2010-06-01,12.0
2010-06-02,9.0
2010-06-03,5.0
2010-06-04,1.0
2010-06-05,0.0
2010-06-06,0.0
2010-06-07,0.0
2010-06-08,0.0
2010-06-09,0.0
2010-06-10,0.0
2010-06-11,0.0
2010-06-12,0.0
2010-06-13,0.0
2010-06-14,0.0
2010-06-15,0.0
2010-06-16,0.0
2010-06-17,0.0
2010-06-18,0.0
2010-06-19,0.0
2010-06-20,0.0
2010-06-21,0.0
2010-06-22,0.0
2010-06-23,0.0
2010-06-24,0.0
2010-06-25,0.0
2010-06-26,0.0
2010-06-27,0.0
2010-06-28,0.0
2010-06-29,0.0
2010-06-30,0.0
2010-07-01,0.0
2010-07-02,0.0
2010-07-03,0.0
2010-07-04,0.0
2010-07-05,0.0
2010-07-06,0.0
2010-07-07,0.0
2010-07-08,0.0
2010-07-09,0.0
2010-07-10,0.0
2010-07-11,0.0
2010-07-12,0.0
2010-07-13,0.0
2010-07-14,0.0
2010-07-15,0.0
2010-07-16,0.0
2010-07-17,0.0
2010-07-18,0.0
2010-07-19,0.0
2010-07-20,0.0
2010-07-21,0.0
2010-07-22,0.0
2010-07-23,0.0
2010-07-24,0.0
2010-07-25,0.0
2010-07-26,0.0
2010-07-27,0.0
2010-07-28,0.0
2010-07-29,0.0
2010-07-30,0.0
2010-07-31,0.0
2010-08-01,0.0
2010-08-02,0.0
2010-08-03,0.0
2010-08-04,0.0
2010-08-05,0.0
2010-08-06,0.0
2010-08-07,0.0
2010-08-08,0.0
2010-08-09,0.0
2010-08-10,0.0
2010-08-11,0.0
2010-08-12,0.0
2010-08-13,0.0
2010-08-14,0.0
2010-08-15,0.0
2010-08-16,0.0
2010-08-17,0.0
2010-08-18,0.0
2010-08-19,0.0
2010-08-20,0.0
2010-08-21,0.0
2010-08-22,0.0
2010-08-23,0.0
2010-08-24,0.0
2010-08-25,0.0
2010-08-26,0.0
2010-08-27,0.0
2010-08-28,0.0
2010-08-29,0.0
2010-08-30,0.0
2010-08-31,0.0
2010-09-01,0.0
2010-09-02,0.0
2010-09-03,0.0
2010-09-04,0.0
2010-09-05,0.0
2010-09-06,0.0
2010-09-07,0.0
2010-09-08,0.0
2010-09-09,0.0
2010-09-10,0.0
2010-09-11,0.0
2010-09-12,0.0
2010-09-13,0.0
2010-09-14,0.0
2010-09-15,0.0
2010-09-16,0.0
2010-09-17,0.0
2010-09-18,0.0
2010-09-19,0.0
2010-09-20,0.0
2010-09-21,0.0
2010-09-22,0.0
2010-09-23,0.0
2010-09-24,0.0
2010-09-25,0.0
2010-09-26,0.0
2010-09-27,0.0
2010-09-28,0.0
2010-09-29,0.0
2010-09-30,0.0
2010-10-01,0.0
2010-10-02,0.0
2010-10-03,0.0
2010-10-04,0.0
2010-10-05,0.0
2010-10-06,0.0
2010-10-07,0.0
2010-10-08,0.0
2010-10-09,0.0
2010-10-10,0.0
2010-10-11,0.0
2010-10-12,0.0
2010-10-13,0.0
2010-10-14,0.0
2010-10-15,0.0
2010-10-16,0.0
2010-10-17,0.0
2010-10-18,0.0
2010-10-19,0.0
2010-10-20,0.0
2010-10-21,0.0
2010-10-22,0.0
2010-10-23,0.0
2010-10-24,0.0
2010-10-25,1.0
2010-10-26,3.0
2010-10-27,7.0
2010-10-28,6.0
2010-10-29,10.0
2010-10-30,9.0
2010-10-31,7.0
2010-11-01,6.0
2010-11-02,4.0
2010-11-03,3.0
2010-11-04,2.0
2010-11-05,0.0
2010-11-06,0.0
2010-11-07,0.0
2010-11-08,0.0
2010-11-09,1.0
2010-11-10,8.0
2010-11-11,8.0
2010-11-12,7.0
2010-11-13,6.0
2010-11-14,4.0
2010-11-15,0.0
2010-11-16,0.0
2010-11-17,0.0
2010-11-18,0.0
2010-11-19,3.0
2010-11-20,3.0
2010-11-21,8.0
2010-11-22,11.0
2010-11-23,24.0
2010-11-24,22.0
2010-11-25,20.0
2010-11-26,19.0
2010-11-27,19.0
2010-11-28,21.0
2010-11-29,20.0
2010-11-30,19.0
2010-12-01,21.0
2010-12-02,23.0
2010-12-03,31.0
2010-12-04,29.0
2010-12-05,28.0
2010-12-06,28.0
2010-12-07,28.0
2010-12-08,27.0
2010-12-09,27.0
2010-12-10,26.0
2010-12-11,26.0
2010-12-12,24.0
2010-12-13,23.0
2010-12-14,21.0
2010-12-15,22.0
2010-12-16,23.0
2010-12-17,22.0
2010-12-18,28.0
2010-12-19,26.0
2010-12-20,35.0
2010-12-21,34.0
2010-12-22,35.0
2010-12-23,38.0
2010-12-24,40.0
2010-12-25,40.0
2010-12-26,41.0
2010-12-27,44.0
2010-12-28,47.0
2010-12-29,58.0
2010-12-30,60.0
2010-12-31,58.0
2011-01-01,55.0
2011-01-02,53.0
2011-01-03,51.0
2011-01-04,50.0
2011-01-05,49.0
2011-01-06,48.0
2011-01-07,47.0
2011-01-08,47.0
2011-01-09,45.0
2011-01-10,44.0
2011-01-11,45.0
2011-01-12,47.0
2011-01-13,46.0
2011-01-14,49.0
2011-01-15,47.0